GOES 10 [-]

Last updated on June 19, 2021, 11:20 a.m. UTC

1 24786U 97019A   21169.34993713 -.00000148  00000-0  00000-0 0  9995
2 24786  11.0111  32.8956 0023600 192.5724 173.0971  0.99126002 87987
UTC
Height (km)
Latitude
Longitude
Inclination
Orbital Period
UTC large
Height (km)
Speed (km/s)
/
Latitude / Longitude
Inclination (degrees)
Orbital Period (minutes)
Azimuth
Elevation
Range (km)
Doppler Factor
iOS Compass Heading
iOS Angle

Next 30 passes for location: Hong Kong

Rise time Rise Azimuth (degrees) Set time Set Azimuth (degrees) Duration Max altitude (degrees)

No matching passes for this satellites